period_start,C,m1,H,J0,J1,J2,J3,J4,J5,JA,JB,JC,JD,JJ,JK,JN,#
2013-12-04 00:00:04,0.19,3.43,0.00,26.41,27.90,31.16,5.81,29.96,1015.64,2038.99,2308.15,2464.02,2666.27,350.15,320.37,33.22,0000 0000 0000 0000 000000
2013-12-04 00:01:04,0.13,3.43,0.00,26.45,27.90,31.17,5.88,29.83,1015.64,2038.99,2308.05,2464.00,2666.11,349.70,319.64,33.23,0000 0000 0000 0000 000000
2013-12-04 00:02:05,0.03,3.43,0.00,26.45,27.90,31.17,5.88,30.00,1015.65,2038.99,2308.00,2463.85,2666.04,350.04,319.96,33.23,0000 0000 0000 0000 000000
2013-12-04 00:03:05,0.09,3.44,0.00,26.45,27.90,31.16,5.78,29.83,1015.64,2038.99,2307.88,2463.58,2666.01,349.89,319.84,33.24,0000 0000 0000 0000 000000
2013-12-04 00:04:05,0.14,3.44,0.00,26.45,27.90,31.19,5.77,29.88,1015.64,2038.99,2307.53,2463.30,2665.98,349.70,319.66,33.24,0000 0000 0000 0000 000000
2013-12-04 00:05:05,0.17,3.44,0.00,26.48,27.90,31.19,5.87,29.96,1015.64,2038.99,2307.04,2463.12,2665.61,350.36,320.24,33.25,0000 0000 0000 0000 000000
2013-12-04 00:06:05,0.27,3.44,0.00,26.49,27.90,31.17,5.79,29.75,1015.65,2038.99,2306.42,2462.97,2665.22,349.13,319.09,33.25,0000 0000 0000 0000 000000
2013-12-04 00:07:05,0.23,3.44,0.00,26.51,27.90,31.17,5.78,29.92,1015.65,2038.99,2306.15,2462.58,2665.08,350.40,320.31,33.26,0000 0000 0000 0000 000000
2013-12-04 00:08:06,0.22,3.44,0.00,26.49,27.90,31.16,5.90,29.96,1015.64,2038.99,2306.05,2462.27,2664.90,349.86,319.77,33.27,0000 0000 0000 0000 000000
2013-12-04 00:09:06,0.16,3.44,0.00,26.51,27.90,31.11,6.08,30.08,1015.64,2038.99,2305.97,2462.10,2664.57,350.56,320.38,33.27,0000 0000 0000 0000 000000
2013-12-04 00:10:06,0.13,3.44,0.00,26.51,27.89,31.13,5.88,29.92,1015.64,2038.99,2305.66,2462.03,2664.26,350.62,320.13,33.28,0000 0000 0000 0000 000000
2013-12-04 00:11:06,0.16,3.44,0.00,26.11,27.89,31.15,5.98,29.92,1015.64,2038.99,2305.29,2462.00,2664.11,351.14,321.34,33.28,0000 0000 0000 0000 000000
2013-12-04 00:12:06,0.12,3.44,0.00,25.37,27.88,31.10,6.10,30.17,1015.64,2038.98,2305.10,2461.99,2664.05,351.13,322.12,33.29,0000 0000 0000 0000 000000
2013-12-04 00:13:07,0.04,3.44,0.00,25.75,27.88,31.17,5.95,29.96,1015.64,2038.99,2305.03,2461.94,2664.01,350.01,320.70,33.30,0000 0000 0000 0000 000000
2013-12-04 00:14:07,0.04,3.45,0.00,26.00,27.88,31.12,5.98,30.08,1015.64,2038.99,2305.01,2461.77,2664.00,351.14,321.46,33.30,0000 0000 0000 0000 000000
2013-12-04 00:15:07,0.08,3.45,0.00,26.07,27.87,31.09,5.93,30.13,1015.64,2038.99,2304.97,2461.51,2663.97,350.29,320.60,33.31,0000 0000 0000 0000 000000
2013-12-04 00:16:07,0.09,3.45,0.00,26.10,27.87,31.04,5.87,29.92,1015.64,2038.99,2304.69,2461.24,2663.88,349.79,320.11,33.31,0000 0000 0000 0000 000000
2013-12-04 00:17:08,0.20,3.45,0.00,26.15,27.87,31.03,5.90,29.96,1015.64,2038.99,2304.34,2461.11,2663.55,349.83,320.26,33.32,0000 0000 0000 0000 000000
2013-12-04 00:18:08,0.17,3.45,0.00,26.22,27.87,31.02,5.95,29.92,1015.64,2038.99,2304.12,2461.04,2663.24,351.30,320.98,33.33,0000 0000 0000 0000 000000
2013-12-04 00:19:08,0.12,3.45,0.00,26.27,27.87,31.07,5.97,29.83,1015.64,2038.99,2304.04,2461.01,2663.08,350.24,320.35,33.33,0000 0000 0000 0000 000000
2013-12-04 00:20:09,0.04,3.45,0.00,26.25,27.87,31.06,5.86,29.79,1015.64,2038.99,2304.01,2461.00,2663.03,349.94,320.08,33.34,0000 0000 0000 0000 000000
2013-12-04 00:21:09,0.01,3.45,0.00,26.26,27.87,31.02,5.83,29.79,1015.64,2038.99,2303.89,2460.98,2663.00,349.32,319.50,33.34,0000 0000 0000 0000 000000
2013-12-04 00:22:09,0.05,3.45,0.00,26.29,27.87,31.05,5.93,29.75,1015.64,2038.99,2303.49,2460.82,2662.96,350.84,321.18,33.35,0000 0000 0000 0000 000000
2013-12-04 00:23:09,0.17,3.45,0.00,26.33,27.87,31.06,5.83,29.50,1015.65,2038.99,2303.19,2460.46,2662.81,350.88,320.62,33.35,0000 0000 0000 0000 000000
2013-12-04 00:24:09,0.20,3.45,0.00,26.31,27.86,31.03,5.81,29.79,1015.65,2038.99,2303.07,2460.19,2662.43,349.56,319.41,33.36,0000 0000 0000 0000 000000
2013-12-04 00:25:09,0.20,3.45,0.00,26.29,27.85,31.04,5.76,29.71,1015.64,2038.99,2302.80,2459.91,2662.02,349.13,319.73,33.37,0000 0000 0000 0000 000000
2013-12-04 00:26:10,0.19,3.45,0.00,26.33,27.85,31.05,5.83,29.75,1015.65,2038.99,2300.85,2458.73,2660.67,350.06,320.11,33.37,0000 0000 0000 0000 000000
2013-12-04 00:27:10,1.37,3.46,0.00,26.29,27.85,31.07,5.73,29.92,1015.64,2038.99,2299.67,2457.76,2659.67,349.03,319.13,33.38,0000 0000 0000 0000 000000
2013-12-04 00:28:10,0.70,3.47,0.00,26.32,27.85,31.05,5.85,29.96,1015.65,2038.99,2299.24,2457.33,2659.26,350.19,319.85,33.38,0000 0000 0000 0000 000000
2013-12-04 00:29:10,0.26,3.47,0.00,26.32,27.85,31.08,5.78,29.83,1015.65,2038.99,2299.08,2457.12,2659.09,349.38,319.66,33.39,0000 0000 0000 0000 000000
2013-12-04 00:30:11,0.11,3.47,0.00,26.36,27.85,31.11,5.91,30.08,1015.66,2038.99,2298.96,2457.05,2659.03,350.50,320.49,33.40,0000 0000 0000 0000 000000
2013-12-04 00:31:11,0.06,3.47,0.00,26.34,27.85,31.10,5.85,29.71,1015.65,2038.99,2298.67,2457.02,2659.01,350.19,320.01,33.40,0000 0000 0000 0000 000000
2013-12-04 00:32:11,0.09,3.47,0.00,26.33,27.84,31.08,5.85,29.96,1015.65,2038.99,2298.28,2457.00,2659.00,349.54,319.64,33.41,0000 0000 0000 0000 000000
2013-12-04 00:33:11,0.09,3.47,0.00,26.35,27.83,31.04,5.90,29.75,1015.64,2039.00,2298.10,2456.99,2658.91,350.10,320.13,33.41,0000 0000 0000 0000 000000
2013-12-04 00:34:12,0.07,3.47,0.00,26.38,27.82,31.03,5.90,29.96,1015.64,2039.00,2298.03,2456.89,2658.52,349.89,319.90,33.42,0000 0000 0000 0000 000000
2013-12-04 00:35:12,0.13,3.47,0.00,26.38,27.82,31.01,5.82,29.92,1015.64,2039.00,2297.96,2456.55,2658.23,349.60,319.64,33.42,0000 0000 0000 0000 000000
2013-12-04 00:36:12,0.18,3.47,0.00,26.41,27.82,31.03,5.95,29.96,1015.64,2039.01,2297.63,2456.22,2658.08,350.64,320.56,33.43,0000 0000 0000 0000 000000
2013-12-04 00:37:12,0.24,3.47,0.00,26.40,27.82,31.03,5.83,29.83,1015.64,2039.00,2297.25,2456.09,2658.03,349.76,319.76,33.44,0000 0000 0000 0000 000000
2013-12-04 00:38:13,0.12,3.47,0.00,26.42,27.82,31.04,5.87,29.92,1015.64,2039.00,2297.09,2456.03,2658.01,349.62,319.57,33.44,0000 0000 0000 0000 000000
2013-12-04 00:39:13,0.05,3.48,0.00,26.41,27.82,31.04,5.74,30.00,1015.65,2039.00,2297.03,2456.01,2657.96,348.41,318.65,33.45,0000 0000 0000 0000 000000
2013-12-04 00:40:13,0.03,3.48,0.00,26.44,27.82,31.07,5.79,30.08,1015.66,2039.00,2296.98,2455.99,2657.74,349.73,319.94,33.45,0000 0000 0000 0000 000000
2013-12-04 00:41:13,0.05,3.48,0.00,26.42,27.82,31.02,5.75,29.83,1015.67,2039.00,2296.79,2455.91,2657.36,349.55,319.55,33.46,0000 0000 0000 0000 000000
2013-12-04 00:42:14,0.13,3.48,0.00,26.43,27.81,31.02,5.70,30.00,1015.72,2039.01,2296.39,2455.58,2657.16,348.81,318.88,33.47,0000 0000 0000 0000 000000
2013-12-04 00:43:14,0.29,3.48,0.00,26.38,27.80,31.04,5.90,30.08,1015.80,2039.00,2296.15,2455.25,2657.07,349.64,319.72,33.47,0000 0000 0000 0000 000000
2013-12-04 00:44:14,0.16,3.48,0.00,26.39,27.80,30.99,6.06,30.00,1015.80,2039.00,2296.05,2455.10,2657.02,351.21,321.16,33.48,0000 0000 0000 0000 000000
2013-12-04 00:45:14,0.07,3.48,0.00,26.38,27.80,31.04,6.10,30.04,1015.85,2039.00,2296.02,2455.03,2657.00,350.49,320.46,33.48,0000 0000 0000 0000 000000
2013-12-04 00:46:14,0.03,3.48,0.00,26.39,27.80,31.04,5.83,29.96,1015.79,2039.00,2295.97,2455.01,2656.98,349.54,319.63,33.49,0000 0000 0000 0000 000000
2013-12-04 00:47:15,0.01,3.48,0.00,26.40,27.80,31.04,5.94,29.79,1015.74,2039.01,2295.75,2455.00,2656.89,350.50,320.47,33.49,0000 0000 0000 0000 000000
2013-12-04 00:48:15,0.09,3.48,0.00,26.39,27.80,31.01,5.94,29.92,1015.72,2039.02,2295.33,2454.99,2656.70,350.07,320.31,33.50,0000 0000 0000 0000 000000
2013-12-04 00:49:15,0.16,3.48,0.00,26.40,27.80,31.04,6.05,29.92,1015.69,2039.02,2295.13,2454.94,2656.33,350.32,320.22,33.51,0000 0000 0000 0000 000000
2013-12-04 00:50:15,0.12,3.48,0.00,26.40,27.80,31.03,6.03,30.08,1015.67,2039.09,2295.05,2454.67,2656.15,350.08,320.25,33.51,0000 0000 0000 0000 000000
2013-12-04 00:51:16,0.23,3.48,0.00,26.40,27.80,31.03,5.90,29.92,1015.67,2039.04,2295.01,2454.31,2656.05,350.49,320.49,33.52,0000 0000 0000 0000 000000
2013-12-04 00:52:16,0.08,3.48,0.00,26.45,27.79,31.03,5.86,29.96,1015.66,2039.01,2294.93,2454.14,2656.02,349.31,319.30,33.52,0000 0000 0000 0000 000000
2013-12-04 00:53:16,0.05,3.48,0.00,26.49,27.79,31.04,5.85,29.88,1015.66,2039.02,2294.62,2454.05,2655.99,350.29,319.73,33.53,0000 0000 0000 0000 000000
2013-12-04 00:54:16,0.12,3.49,0.00,26.48,27.78,31.01,5.83,29.92,1015.64,2039.02,2294.27,2454.01,2655.91,349.70,319.62,33.54,0000 0000 0000 0000 000000
2013-12-04 00:55:17,0.09,3.49,0.00,26.47,27.78,31.01,5.81,29.79,1015.67,2039.00,2294.09,2454.00,2655.53,349.15,319.14,33.54,0000 0000 0000 0000 000000
2013-12-04 00:56:17,0.11,3.49,0.00,26.46,27.77,30.98,5.77,29.88,1015.65,2039.04,2294.03,2453.98,2655.27,349.91,319.84,33.55,0000 0000 0000 0000 000000
2013-12-04 00:57:17,0.09,3.49,0.00,26.43,27.77,31.00,5.86,29.83,1015.68,2039.04,2293.99,2453.83,2655.12,350.10,320.05,33.55,0000 0000 0000 0000 000000
2013-12-04 00:58:17,0.09,3.49,0.00,26.42,27.77,31.05,5.84,29.71,1015.70,2039.06,2293.94,2453.53,2655.05,348.96,319.02,33.56,0000 0000 0000 0000 000000
2013-12-04 00:59:17,0.16,3.49,0.00,26.46,27.77,31.03,5.90,29.75,1015.68,2039.04,2293.65,2453.28,2655.01,350.42,320.32,33.56,0000 0000 0000 0000 000000
2013-12-04 01:00:18,0.14,3.49,0.00,26.45,27.77,31.02,6.07,29.79,1015.67,2039.05,2293.30,2453.13,2654.99,351.32,321.14,33.57,0000 0000 0000 0000 000000
2013-12-04 01:01:18,0.14,3.49,0.00,26.45,27.77,31.02,5.83,29.71,1015.66,2039.04,2293.11,2453.05,2654.92,350.13,320.05,33.58,0000 0000 0000 0000 000000
2013-12-04 01:02:18,0.07,3.49,0.00,26.48,27.77,31.05,5.77,29.79,1015.69,2039.05,2293.04,2453.01,2654.56,349.82,319.46,33.58,0000 0000 0000 0000 000000
2013-12-04 01:03:19,0.11,3.49,0.00,26.49,27.77,31.02,6.08,29.92,1015.69,2039.04,2292.95,2453.00,2654.25,350.25,320.13,33.59,0000 0000 0000 0000 000000
2013-12-04 01:04:19,0.07,3.49,0.00,26.45,27.77,31.05,6.04,30.00,1015.70,2039.02,2292.78,2452.93,2654.11,350.52,320.62,33.59,0000 0000 0000 0000 000000
2013-12-04 01:05:19,0.08,3.49,0.00,26.45,27.77,31.04,5.87,29.92,1015.72,2039.01,2292.41,2452.82,2654.04,349.55,319.65,33.60,0000 0000 0000 0000 000000
2013-12-04 01:06:19,0.13,3.49,0.00,26.49,27.77,31.02,5.81,29.79,1015.73,2039.02,2292.16,2452.42,2654.01,349.71,319.92,33.61,0000 0000 0000 0000 000000
2013-12-04 01:07:20,0.22,3.49,0.00,26.51,27.77,31.05,5.98,30.08,1015.73,2039.03,2292.06,2452.17,2654.00,350.26,320.25,33.61,0000 0000 0000 0000 000000
2013-12-04 01:08:20,0.11,3.49,0.00,26.53,27.77,31.05,5.85,29.96,1015.68,2039.05,2292.02,2452.07,2653.81,350.67,320.39,33.62,0000 0000 0000 0000 000000
2013-12-04 01:09:20,0.09,3.50,0.00,26.50,27.77,31.07,5.76,29.71,1015.66,2039.05,2291.98,2452.03,2653.41,349.45,319.44,33.62,0000 0000 0000 0000 000000
2013-12-04 01:10:20,0.10,3.50,0.00,26.50,27.77,31.05,5.67,29.92,1015.66,2039.02,2291.69,2452.01,2653.16,349.31,319.44,33.63,0000 0000 0000 0000 000000
2013-12-04 01:11:21,0.09,3.50,0.00,26.49,27.77,31.04,5.82,29.92,1015.71,2039.01,2291.30,2451.97,2653.06,349.68,319.15,33.64,0000 0000 0000 0000 000000
2013-12-04 01:12:21,0.11,3.50,0.00,26.47,27.77,31.06,5.85,29.71,1015.76,2039.01,2291.11,2451.89,2653.02,350.36,319.90,33.64,0000 0000 0000 0000 000000
2013-12-04 01:13:21,0.08,3.50,0.00,26.52,27.77,31.06,6.00,29.96,1015.80,2039.03,2291.03,2451.48,2652.99,350.48,320.34,33.65,0000 0000 0000 0000 000000
2013-12-04 01:14:21,0.19,3.50,0.00,26.58,27.77,31.03,5.98,29.92,1015.90,2039.03,2290.97,2451.21,2652.86,349.76,319.64,33.65,0000 0000 0000 0000 000000
2013-12-04 01:15:22,0.12,3.50,0.00,26.54,27.77,31.01,5.93,30.00,1015.97,2039.05,2290.82,2451.07,2652.54,350.32,320.24,33.66,0000 0000 0000 0000 000000
2013-12-04 01:16:22,0.17,3.50,0.00,26.57,27.77,31.03,6.05,29.92,1015.95,2039.05,2290.40,2451.03,2652.24,350.10,319.99,33.66,0000 0000 0000 0000 000000
2013-12-04 01:17:22,0.16,3.50,0.00,26.56,27.77,31.05,5.78,29.71,1016.01,2039.06,2290.16,2451.01,2652.10,349.42,319.40,33.67,0000 0000 0000 0000 000000
2013-12-04 01:18:22,0.10,3.50,0.00,26.61,27.77,31.04,5.88,29.83,1016.06,2039.03,2290.05,2450.98,2652.03,349.73,319.65,33.68,0000 0000 0000 0000 000000
2013-12-04 01:19:23,0.00,3.50,0.00,26.58,27.77,31.05,5.89,29.79,1016.04,2039.02,2290.01,2450.83,2652.01,350.24,320.18,33.68,0000 0000 0000 0000 000000
2013-12-04 01:20:23,0.07,3.50,0.00,26.59,27.77,31.06,5.87,29.75,1015.98,2039.00,2289.85,2450.40,2651.99,349.88,319.79,33.69,0000 0000 0000 0000 000000
2013-12-04 01:21:23,0.17,3.50,0.00,26.60,27.77,31.05,5.83,30.04,1015.86,2039.00,2289.44,2450.14,2651.79,350.19,320.01,33.69,0000 0000 0000 0000 000000
2013-12-04 01:22:23,0.22,3.50,0.00,26.58,27.77,31.03,5.92,29.83,1015.90,2039.00,2289.17,2450.05,2651.38,349.63,319.53,33.70,0000 0000 0000 0000 000000
2013-12-04 01:23:24,0.16,3.51,0.00,26.59,27.77,31.06,5.82,29.79,1015.89,2039.00,2289.06,2450.02,2651.16,349.63,319.43,33.71,0000 0000 0000 0000 000000
2013-12-04 01:24:24,0.07,3.51,0.00,26.56,27.77,31.05,5.74,29.79,1015.88,2039.02,2289.02,2450.00,2651.05,349.83,319.98,33.71,0000 0000 0000 0000 000000
2013-12-04 01:25:24,0.04,3.51,0.00,26.51,27.77,31.07,6.10,30.04,1015.84,2039.01,2288.92,2449.97,2651.02,351.13,320.96,33.72,0000 0000 0000 0000 000000
2013-12-04 01:26:25,0.03,3.51,0.00,26.53,27.77,31.06,5.94,29.75,1015.90,2039.01,2288.51,2449.69,2650.97,350.62,320.49,33.72,0000 0000 0000 0000 000000
2013-12-04 01:27:25,0.19,3.51,0.00,26.56,27.77,31.05,6.00,30.08,1015.94,2039.02,2288.20,2449.28,2650.80,350.04,319.72,33.73,0000 0000 0000 0000 000000
2013-12-04 01:28:25,0.26,3.51,0.00,26.56,27.77,31.07,5.83,29.79,1016.00,2039.03,2288.07,2449.10,2650.50,350.44,320.33,33.73,0000 0000 0000 0000 000000
2013-12-04 01:29:25,0.16,3.51,0.00,26.56,27.77,31.08,5.78,29.71,1016.01,2039.02,2288.02,2449.05,2650.21,349.49,319.65,33.74,0000 0000 0000 0000 000000
2013-12-04 01:30:26,0.07,3.51,0.00,26.55,27.77,31.11,5.95,29.88,1016.03,2039.02,2287.99,2449.01,2650.08,350.66,320.55,33.75,0000 0000 0000 0000 000000
2013-12-04 01:31:26,0.04,3.51,0.00,26.55,27.77,31.09,5.83,29.79,1016.11,2039.01,2287.75,2449.00,2650.03,350.00,319.97,33.75,0000 0000 0000 0000 000000
2013-12-04 01:32:27,0.04,3.51,0.00,26.56,27.77,31.06,5.82,29.79,1016.13,2039.01,2287.37,2449.00,2650.01,350.31,320.24,33.76,0000 0000 0000 0000 000000
2013-12-04 01:33:27,0.10,3.51,0.00,26.56,27.77,31.07,5.95,29.88,1016.13,2039.01,2287.15,2448.91,2649.97,350.21,320.15,33.76,0000 0000 0000 0000 000000
2013-12-04 01:34:27,0.11,3.51,0.00,26.57,27.77,31.09,5.98,29.96,1016.13,2039.00,2287.05,2448.53,2649.83,350.04,319.99,33.77,0000 0000 0000 0000 000000
2013-12-04 01:35:27,0.18,3.51,0.00,26.65,27.78,31.12,5.99,30.00,1016.13,2039.00,2286.98,2448.22,2649.47,350.00,319.88,33.78,0000 0000 0000 0000 000000
2013-12-04 01:36:27,0.16,3.51,0.00,26.67,27.78,31.09,5.95,29.88,1016.13,2039.00,2286.95,2448.08,2649.19,349.93,319.78,33.78,0000 0000 0000 0000 000000
2013-12-04 01:37:28,0.11,3.52,0.00,26.68,27.78,31.09,5.91,29.92,1016.13,2039.01,2286.64,2448.03,2649.07,350.20,320.02,33.79,0000 0000 0000 0000 000000
2013-12-04 01:38:28,0.12,3.52,0.00,26.65,27.78,31.09,5.83,29.96,1016.13,2039.02,2286.24,2448.01,2649.03,349.40,319.62,33.79,0000 0000 0000 0000 000000
2013-12-04 01:39:28,0.09,3.52,0.00,26.65,27.79,31.10,5.91,29.96,1016.13,2039.00,2286.08,2447.99,2649.00,350.36,320.20,33.80,0000 0000 0000 0000 000000
2013-12-04 01:40:29,0.03,3.52,0.00,26.62,27.79,31.12,6.01,30.00,1016.13,2039.01,2286.02,2447.93,2648.87,350.62,320.54,33.81,0000 0000 0000 0000 000000
2013-12-04 01:41:29,0.09,3.52,0.00,26.61,27.80,31.13,5.92,30.04,1016.13,2039.02,2285.94,2447.59,2648.51,349.98,320.25,33.81,0000 0000 0000 0000 000000
2013-12-04 01:42:29,0.23,3.52,0.00,26.58,27.80,31.11,5.88,30.13,1016.13,2039.03,2285.59,2447.25,2648.23,349.76,319.26,33.82,0000 0000 0000 0000 000000
2013-12-04 01:43:29,0.23,3.52,0.00,26.61,27.80,31.12,5.92,30.08,1016.13,2039.01,2285.24,2447.09,2648.08,350.70,320.57,33.82,0000 0000 0000 0000 000000
2013-12-04 01:44:30,0.13,3.52,0.00,26.64,27.80,31.11,5.92,30.00,1016.13,2039.00,2285.08,2447.03,2648.03,350.02,319.90,33.83,0000 0000 0000 0000 000000
2013-12-04 01:45:30,0.06,3.52,0.00,26.64,27.80,31.12,5.98,29.92,1016.13,2039.00,2285.01,2446.99,2648.00,350.19,320.52,33.83,0000 0000 0000 0000 000000
2013-12-04 01:46:30,0.05,3.52,0.00,26.64,27.80,31.13,5.90,30.04,1016.14,2039.00,2284.84,2446.86,2647.80,350.15,320.00,33.84,0000 0000 0000 0000 000000
2013-12-04 01:47:31,0.13,3.52,0.00,26.62,27.80,31.11,6.02,30.08,1016.13,2039.00,2284.50,2446.69,2647.42,350.27,320.15,33.85,0000 0000 0000 0000 000000
2013-12-04 01:48:31,0.20,3.52,0.00,26.60,27.80,31.12,5.99,29.92,1016.14,2039.00,2284.21,2446.39,2647.16,350.30,319.58,33.85,0000 0000 0000 0000 000000
2013-12-04 01:49:31,0.21,3.52,0.00,26.61,27.80,31.11,5.96,30.17,1016.13,2039.00,2284.07,2446.17,2647.05,349.89,319.72,33.86,0000 0000 0000 0000 000000
2013-12-04 01:50:31,0.12,3.53,0.00,26.58,27.80,31.11,5.75,29.88,1016.13,2039.00,2284.01,2446.06,2647.02,349.55,319.53,33.86,0000 0000 0000 0000 000000
2013-12-04 01:51:32,0.05,3.53,0.00,26.61,27.80,31.14,5.97,30.13,1016.14,2039.00,2283.97,2446.02,2646.99,350.66,320.52,33.87,0000 0000 0000 0000 000000
2013-12-04 01:52:32,0.04,3.53,0.00,26.65,27.80,31.13,5.98,30.13,1016.13,2039.00,2283.62,2446.00,2646.85,351.06,320.53,33.88,0000 0000 0000 0000 000000
2013-12-04 01:53:32,0.10,3.53,0.00,26.62,27.80,31.15,5.98,30.25,1016.13,2039.00,2283.27,2445.99,2646.61,350.31,320.18,33.88,0000 0000 0000 0000 000000
2013-12-04 01:54:33,0.15,3.53,0.00,26.61,27.80,31.13,6.00,30.21,1016.14,2039.00,2283.11,2445.68,2646.26,350.41,320.29,33.89,0000 0000 0000 0000 000000
2013-12-04 01:55:33,0.20,3.53,0.00,26.65,27.81,31.13,6.02,30.00,1016.13,2039.00,2283.04,2445.30,2646.09,351.03,320.89,33.89,0000 0000 0000 0000 000000
2013-12-04 01:56:33,0.17,3.53,0.00,26.61,27.81,31.13,5.88,30.00,1016.13,2039.00,2282.98,2445.12,2646.03,350.37,320.60,33.90,0000 0000 0000 0000 000000
2013-12-04 01:57:33,0.08,3.53,0.00,26.68,27.81,31.15,6.02,30.17,1016.13,2039.00,2282.65,2445.05,2646.00,350.48,320.28,33.90,0000 0000 0000 0000 000000
2013-12-04 01:58:34,0.10,3.53,0.00,26.69,27.82,31.16,5.89,29.92,1016.13,2039.00,2282.26,2445.02,2645.92,350.34,320.32,33.91,0000 0000 0000 0000 000000
2013-12-04 01:59:34,0.13,3.53,0.00,26.65,27.82,31.17,5.82,29.83,1016.14,2039.00,2282.09,2444.97,2645.56,350.06,319.65,33.92,0000 0000 0000 0000 000000
2013-12-04 02:00:34,0.13,3.53,0.00,26.66,27.82,31.15,5.97,30.04,1016.13,2039.00,2282.01,2444.76,2645.25,349.51,319.41,33.92,0000 0000 0000 0000 000000
2013-12-04 02:01:35,0.13,3.53,0.00,26.61,27.82,31.13,5.80,30.04,1016.13,2039.00,2281.95,2444.37,2645.09,349.67,319.62,33.93,0000 0000 0000 0000 000000
2013-12-04 02:02:35,0.19,3.53,0.00,26.59,27.82,31.15,5.84,29.92,1016.13,2039.00,2281.53,2444.16,2645.03,350.13,320.05,33.93,0000 0000 0000 0000 000000
2013-12-04 02:03:35,0.16,3.54,0.00,26.61,27.82,31.16,5.80,29.79,1016.13,2039.00,2281.22,2444.05,2644.99,349.96,319.88,33.94,0000 0000 0000 0000 000000
2013-12-04 02:04:36,0.12,3.54,0.00,26.59,27.82,31.15,5.82,29.79,1016.13,2039.00,2281.08,2444.01,2644.86,350.03,319.96,33.95,0000 0000 0000 0000 000000
2013-12-04 02:05:36,0.08,3.54,0.00,26.61,27.82,31.16,5.91,29.96,1016.13,2039.00,2281.02,2443.99,2644.48,350.02,319.98,33.95,0000 0000 0000 0000 000000
2013-12-04 02:06:36,0.09,3.54,0.00,26.58,27.82,31.19,5.65,29.83,1016.13,2039.00,2280.89,2443.85,2644.21,349.82,319.78,33.96,0000 0000 0000 0000 000000
2013-12-04 02:07:37,0.14,3.54,0.00,26.59,27.82,31.17,5.96,29.92,1016.13,2039.00,2280.48,2443.48,2644.08,349.78,319.73,33.96,0000 0000 0000 0000 000000
2013-12-04 02:08:37,0.22,3.54,0.00,26.61,27.82,31.16,5.93,29.92,1016.13,2039.00,2280.21,2443.19,2644.03,349.94,319.50,33.97,0000 0000 0000 0000 000000
2013-12-04 02:09:37,0.16,3.54,0.00,26.62,27.82,31.12,5.68,29.63,1016.13,2039.00,2280.08,2443.07,2643.99,349.38,319.34,33.98,0000 0000 0000 0000 000000
2013-12-04 02:10:38,0.07,3.54,0.00,26.67,27.82,31.14,5.90,29.88,1016.13,2039.00,2280.02,2443.02,2643.87,350.35,320.17,33.98,0000 0000 0000 0000 000000
2013-12-04 02:11:38,0.07,3.54,0.00,26.65,27.82,31.11,6.07,29.79,1016.14,2039.00,2279.96,2442.99,2643.46,351.02,320.92,33.99,0000 0000 0000 0000 000000
2013-12-04 02:12:38,0.09,3.54,0.00,26.60,27.83,31.14,5.86,29.71,1016.14,2039.00,2279.81,2442.98,2643.18,350.66,320.69,33.99,0000 0000 0000 0000 000000
2013-12-04 02:13:38,0.13,3.54,0.00,26.59,27.83,31.16,5.93,29.67,1016.14,2038.99,2279.38,2442.84,2643.06,350.40,320.29,34.00,0000 0000 0000 0000 000000
2013-12-04 02:14:39,0.17,3.54,0.00,26.57,27.84,31.14,5.77,29.71,1016.15,2038.99,2279.15,2442.49,2643.02,349.68,319.66,34.00,0000 0000 0000 0000 000000
2013-12-04 02:15:39,0.16,3.55,0.00,26.61,27.84,31.15,5.98,29.75,1016.14,2038.99,2279.05,2442.22,2642.99,350.50,320.51,34.01,0000 0000 0000 0000 000000
2013-12-04 02:16:39,0.11,3.55,0.00,26.60,27.84,31.14,5.93,29.92,1016.15,2038.99,2278.99,2442.08,2642.93,350.01,319.74,34.02,0000 0000 0000 0000 000000
2013-12-04 02:17:39,0.08,3.55,0.00,26.60,27.85,31.14,5.79,29.71,1016.14,2038.99,2278.88,2442.03,2642.60,349.49,319.34,34.02,0000 0000 0000 0000 000000
2013-12-04 02:18:40,0.11,3.55,0.00,26.65,27.85,31.13,5.81,29.71,1016.13,2038.99,2278.57,2442.01,2642.28,349.69,319.38,34.03,0000 0000 0000 0000 000000
2013-12-04 02:19:40,0.14,3.55,0.00,26.65,27.85,31.15,5.84,29.67,1016.13,2038.98,2278.23,2441.97,2642.12,349.90,319.78,34.03,0000 0000 0000 0000 000000
2013-12-04 02:20:40,0.11,3.55,0.00,26.64,27.85,31.16,5.95,29.79,1016.13,2038.99,2278.08,2441.83,2642.04,350.48,320.32,34.04,0000 0000 0000 0000 000000
2013-12-04 02:21:41,0.12,3.55,0.00,26.66,27.85,31.16,5.97,29.75,1016.13,2038.99,2278.02,2441.45,2642.01,350.72,320.68,34.05,0000 0000 0000 0000 000000
2013-12-04 02:22:41,0.13,3.55,0.00,26.64,27.85,31.13,6.05,29.83,1016.13,2038.99,2278.00,2441.20,2641.96,350.38,320.22,34.05,0000 0000 0000 0000 000000
2013-12-04 02:23:41,0.10,3.55,0.00,26.65,27.85,31.17,5.82,29.75,1016.13,2038.99,2277.72,2441.07,2641.68,349.73,319.55,34.06,0000 0000 0000 0000 000000
2013-12-04 02:24:41,0.16,3.55,0.00,26.69,27.85,31.16,5.90,29.71,1016.14,2038.99,2277.33,2441.02,2641.36,350.50,320.29,34.06,0000 0000 0000 0000 000000
2013-12-04 02:25:42,0.17,3.55,0.00,26.66,27.85,31.20,6.02,29.88,1016.14,2038.99,2277.13,2441.00,2641.15,350.61,320.41,34.07,0000 0000 0000 0000 000000
2013-12-04 02:26:42,0.09,3.55,0.00,26.61,27.85,31.19,5.94,29.92,1016.13,2038.99,2277.04,2440.97,2641.06,350.52,320.39,34.07,0000 0000 0000 0000 000000
2013-12-04 02:27:42,0.05,3.55,0.00,26.56,27.85,31.17,5.76,29.71,1016.13,2038.99,2277.01,2440.87,2641.02,349.94,319.91,34.08,0000 0000 0000 0000 000000
2013-12-04 02:28:43,0.05,3.55,0.00,26.54,27.85,31.20,5.82,29.75,1016.13,2038.98,2276.98,2440.63,2641.00,349.42,319.46,34.09,0000 0000 0000 0000 000000
2013-12-04 02:29:43,0.10,3.55,0.00,26.55,27.85,31.19,5.97,29.63,1016.15,2038.99,2276.66,2440.33,2640.95,350.71,320.62,34.09,0000 0000 0000 0000 000000
2013-12-04 02:30:43,0.19,3.55,0.00,26.58,27.85,31.16,5.96,29.79,1016.13,2038.99,2276.27,2440.13,2640.82,350.68,320.57,34.10,0000 0000 0000 0000 000000
2013-12-04 02:31:44,0.20,3.56,0.00,26.58,27.85,31.15,6.02,29.63,1016.13,2038.99,2276.10,2440.04,2640.38,350.50,320.41,34.10,0000 0000 0000 0000 000000
2013-12-04 02:32:44,0.13,3.56,0.00,26.59,27.85,31.16,5.99,29.75,1016.14,2038.97,2276.03,2440.01,2640.13,350.39,320.29,34.11,0000 0000 0000 0000 000000
2013-12-04 02:33:44,0.06,3.56,0.00,26.56,27.85,31.15,5.69,29.71,1016.13,2038.96,2275.95,2439.97,2640.05,348.68,319.42,34.12,0000 0000 0000 0000 000000
2013-12-04 02:34:44,0.06,3.56,0.00,26.57,27.86,31.18,5.92,29.88,1016.13,2038.97,2275.57,2439.88,2640.01,350.08,320.03,34.12,0000 0000 0000 0000 000000
2013-12-04 02:35:45,0.15,3.56,0.00,26.57,27.86,31.17,5.98,29.71,1016.13,2038.96,2275.22,2439.47,2639.94,350.25,320.26,34.13,0000 0000 0000 0000 000000